Regional Weather Roundup
Issued by NWS Cleveland, OH

Home | Current Version | Previous Version | Text Only | Print | Product List | Glossary Off
Versions: 1 2 3 4 5 6 7 8 9 10 11 12 13 14 15 16 17 18 19 20 21 22 23 24 25 26 27 28 29 30 31 32 33 34 35 36 37 38 39 40 41 42 43 44 45 46 47 48 49 50

000
ASUS41 KCLE 060602
RWRCLE
OHIO REGIONAL WEATHER ROUNDUP
NATIONAL WEATHER SERVICE CLEVELAND, OH
100 AM EST FRI MAR 06 2015

NOTE: "FAIR" INDICATES FEW OR NO CLOUDS BELOW 12,000 FEET WITH NO
SIGNIFICANT WEATHER AND/OR OBSTRUCTIONS TO VISIBILITY.

OHZ001>008-015>018-024>027-034-035-043-044-060700-
   NORTHWEST OHIO

CITY           SKY/WX    TMP DP  RH WIND       PRES   REMARKS
DEFIANCE       MOCLDY     4  -1  80 CALM      30.52F
FINDLAY        MOCLDY     5  -1  76 CALM      30.50F
TOLEDO EXPRESS PTCLDY     5  -1  76 SW5       30.51S WCI  -4
TOLEDO EXEC    FAIR       8  -1  66 SW6       30.52F WCI  -2
LIMA           MOCLDY     9   4  80 S6        30.50S WCI  -1
$$

OHZ009>014-019>023-028>033-038-089-060700-
   NORTHEAST OHIO

CITY           SKY/WX    TMP DP  RH WIND       PRES   REMARKS
CLE-HOPKINS    PTCLDY     4  -2  76 SW5       30.52F WCI  -5
CLE-LAKEFRONT  CLEAR     11   2  67 S3        30.51F
CUY CO. ARPT   NOT AVBL
LORAIN-ELYRIA  PTCLDY     5  -1  76 SW6       30.50F WCI  -6
ASHTABULA      PTCLDY    -7 -13  75 CALM      30.49F
AKRON-CANTON   PTCLDY     6  -3  66 S3        30.47S
WOOSTER        MOCLDY    -5  -9  83 CALM      30.48F
MANSFIELD      PTCLDY     4   2  91 S5        30.45F WCI  -5
YOUNGSTOWN     PTCLDY     0  -5  79 CALM      30.46F
$$

OHZ042-051>053-060>062-070>072-077>081-060700-
  SOUTHWEST OHIO

CITY           SKY/WX    TMP DP  RH WIND       PRES   REMARKS
CINC-COVINGTON PTCLDY    10   3  73 CALM      30.53S
CINC-LUNKEN    MOCLDY     9   6  88 N3        30.58S
HAMILTON       PTCLDY     5   1  83 CALM      30.56F
DAYTON         PTCLDY    11   4  73 W5        30.51F WCI   3
WRIGHT-PAT AFB PTCLDY    10   6  85 CALM      30.52F
DAYTON GENERAL PTCLDY    10   3  73 CALM      30.51S
WILMINGTON     MOCLDY     4   0  83 CALM      30.50F
$$

OHZ036-037-039>041-045>050-054>059-063>069-073>076-082>088-060700-
  CENTRAL AND SOUTHEAST OHIO

CITY           SKY/WX    TMP DP  RH WIND       PRES   REMARKS
COLUMBUS       PTCLDY     7   2  80 CALM      30.52F
OSU AIRPORT    PTCLDY     8   4  83 CALM      30.51F
BOLTON FIELD   PTCLDY   N/A N/A N/A CALM      30.52S
RICKENBACK AFB PTCLDY     6   2  82 CALM      30.52F
NEWARK         PTCLDY     1  -4  79 CALM      30.51F
MARION         FAIR       1  -4  79 S5        30.50F WCI  -9
LANCASTER      PTCLDY    -3  -6  87 CALM      30.52S
ZANESVILLE     PTCLDY     2  -2  83 CALM      30.52S
NEW PHILLY     PTCLDY     5   0  79 CALM      30.52S
$$



USA.gov is the U.S. government's official web portal to all federal, state and local government web resources and services.